Zurück zum Katalog

STARLINK-31004

AktivKommunikationVLEO
NORAD 58528·PAYLOAD·🇺🇸 United States

Gestartet Dec 7, 2023 von Cape Canaveral Space Force Station

Loading…

Nächste Überflüge (nächste 24 Stunden)

TLE

AktuellSource: CelesTrak SupGP

Epoche: Sep 14, 2026, 20:41 UTC

1 58528C 23191W   26257.86229167 -.00008290  00000+0 -30045-3 0  2579
2 58528  43.0021 114.9665 0001342 274.1387 107.5486 15.27561288    11

Verfolge STARLINK-31004 in Echtzeit mit AllMySat

Download on the App Store